Nanaimo, British Columbia

8:21 AM PDT on May 23, 2017 (GMT -0700)
Nanaimo

Weather History for CYCD - October, 2012

Change the Weather History Date:

Monday, October 8, 2012

  Actual Average Record
Temperature  
Mean Temperature 52 °F -  
Max Temperature 68 °F 55 °F 68 °F (1996)
Min Temperature 30 °F 38 °F 28 °F (2015)
Degree Days  
Heating Degree Days 13    
Growing Degree Days 2 (Base 50)    
Moisture  
Dew Point 42 °F    
Average Humidity 67    
Maximum Humidity 98    
Minimum Humidity 46    
Precipitation  
Precipitation 0.00 in 0.16 in - ()
Sea Level Pressure  
Sea Level Pressure 30.00 in    
Wind  
Wind Speed 2 mph ()    
Max Wind Speed 6 mph    
Max Gust Speed -    
Averages and records for this station are not official NWS values.
T = Trace of Precipitation, MM = Missing Value Source: Averaged Metar Reports

Daily Weather History Graph

Daily Weather History Graph

Search for Another Location

Airport or City:

Trip Planner

Search our weather history database for the weather conditions in past years. The results will help you decide how hot, cold, wet, or windy it might be!

Date:

Astronomy

Oct. 08, 2012 Rise Set
Actual Time 7:26 AM PDT 6:38 PM PDT
Civil Twilight 6:54 AM PDT 7:10 PM PDT
Nautical Twilight 6:18 AM PDT 7:46 PM PDT
Astronomical Twilight 5:40 AM PDT 8:23 PM PDT
Moon No Moon Rise 3:02 PM PDT (10/8)
Length of Visible Light 12h 15m
Length of Day
11h 11m
Last Quarter, 45% of the Moon is Illuminated
Oct 8
Last Quarter
Oct 15
New
Oct 21
First Quarter
Oct 29
Full
Nov 6
Last Quarter

Hourly Weather History & Observations

Time (PDT) Temp. Dew Point Humidity Pressure Visibility Wind Dir Wind Speed Gust Speed Precip Events Conditions
5:00 AM 38 °F 34 °F 81% 30.06 in - WNW 2.3 mph - -  
6:00 AM 41.0 °F 35.6 °F 81% 29.96 in 30.0 mi Calm Calm - N/A   Clear
7:00 AM 39.2 °F 37.4 °F 93% 29.96 in 30.0 mi Calm Calm - N/A Fog Shallow Fog
8:00 AM 41.0 °F 37.4 °F 87% 29.98 in 30.0 mi Calm Calm - N/A   Partly Cloudy
9:00 AM 48.2 °F 42.8 °F 82% 29.97 in 30.0 mi Calm Calm - N/A   Scattered Clouds
10:00 AM 57.2 °F 44.6 °F 63% 29.98 in 30.0 mi NE 3.5 mph - N/A   Scattered Clouds
11:00 AM 43 °F 35 °F 63% 30.10 in - WNW 4.6 mph - -  
11:00 AM 60.8 °F 44.6 °F 55% 29.98 in 30.0 mi NE 2.3 mph - N/A   Scattered Clouds
12:00 PM 68.0 °F 46.4 °F 46% 29.98 in 30.0 mi ENE 2.3 mph - N/A   Partly Cloudy
1:00 PM 68.0 °F 46.4 °F 46% 29.96 in 30.0 mi North 2.3 mph - N/A   Partly Cloudy
2:00 PM 69.8 °F 48.2 °F 46% 29.96 in 30.0 mi East 5.8 mph - N/A   Mostly Cloudy
3:00 PM 69.8 °F 48.2 °F 46% 29.94 in 30.0 mi NNE 5.8 mph - N/A   Mostly Cloudy
4:00 PM 69.8 °F 48.2 °F 46% 29.94 in 30.0 mi North 3.5 mph - N/A   Scattered Clouds
5:00 PM 37 °F 35 °F 89% 30.21 in - SW 4.6 mph - -  
5:00 PM 68.0 °F 46.4 °F 46% 29.94 in 30.0 mi North 5.8 mph - N/A   Scattered Clouds
6:00 PM 66.2 °F 46.4 °F 49% 29.93 in 30.0 mi NE 2.3 mph - N/A   Mostly Cloudy
7:00 PM 57.2 °F 46.4 °F 67% 29.95 in 30.0 mi West 2.3 mph - N/A   Mostly Cloudy
8:00 PM 53.6 °F 46.4 °F 77% 29.95 in 30.0 mi Calm Calm - N/A   Mostly Cloudy
9:00 PM 51.8 °F 44.6 °F 76% 29.97 in 30.0 mi Calm Calm - N/A   Mostly Cloudy
11:00 PM 30 °F 30 °F 98% 30.28 in - West 3.5 mph - -